STARLINK-32661, 62899

Orbit data source: Space-Track

STARLINK-32661, 62899 is a payload satellite owned by SpaceX/Seattle (US) in LEO that was launched on Tue, 04 Feb 2025 UTC via an FALCON 9 launch vehicle from the Air Force Eastern Test Range (AFETR). Payload-class satellites include a variety of spacecraft equipped with specific instruments for various scientific and technological missions. These include communications satellites like Starlink; space stations such as the ISS; scientific satellites like the Hubble; Earth observation satellites from companies like Planet Labs, Umbra, and HawkEye 360; GPS; miniature CubeSats for education and research; and military/defense satellites.

Loading next visibility...
Identifier
62899, 2025-024W
Orbit
LEO
Country
Flag of USUS
Related business
Manufacturer
SpaceX/Seattle
Mission
Operational Commercial Communications
Bus & Motor
STARLINK V2M, Unknown motor
Mass
730 kg wet, ~700 kg dry
Launch date (UTC)
2025-02-04 (7 months ago)
Launch vehicle
FALCON 9
Launch site
Air Force Eastern Test Range (AFETR)
Object type
Payload
Rocket body
Debris
Shape & HBR
Box + 2 Pan, 14.5 m
Radar Cross Section
33.884 m², Large (>1 m²)

Expand to show TLE details & history
Last TLE update: 14 hours ago

TLE from 14 hours ago
0 STARLINK-32661
1 62899U 25024W   25259.21930759  .00024120  00000-0  88253-3 0  9994
2 62899  42.9958 230.6136 0001238 276.1140  83.9571 15.27603331 35584
Epoch: 2025-09-16T05:15Z
TLE epoch observation values (Epoch: 2025-09-16T05:15:48.175Z)
Latitude
Longitude
156.25012°
Altitude
482.665 km
Speed
7.626 km/s
True Right ascension
15h 22m 27s
True Declination
0° 00' 00"
Sunlit
Object was in daylight at epoch
Visualization orbit readout
Latitude
Unknown
Longitude
Unknown
Altitude
Unknown
Speed
Unknown
Apparent Right ascension
Unknown
Apparent Declination
Unknown
Sunlit
N/A
Visualization observer readout
Local Sidereal Time
12:01:29
Azimuth
Unknown
Elevation
Unknown
Doppler factor
Unknown
Orbital elements
Apogee altitude
485.775 km
Perigee altitude
484.075 km
Semi-major axis
6,863.062 km
Eccentricity
0.00012
Inclination
42.9958°
RAAN
230.6136°
Arg. of periapsis
276.114°
True anomaly
83.97121°
Mean anomaly
83.9571°
Eccentric anomaly
83.96415°
Mean motion
3.81739 °/min
Orbital period
94.31 mins
BSTAR
0.00088253
Loading maneuver chart data...
Computing Atmospheric mass density...
Loading historical data...
Loading historical data...
Loading historical data...
Loading historical data...
Loading historical data...
Loading historical data...
Loading historical data...

Documentation

Showing up to 5 results
|